This is the latest recevied weather packets stored in our database for station/object W4TJP. If no packets are shown the sender has not sent any weather packets the latest 10 day(s).
| Time | Temp. | Humidity | Pressure | Rain* | Wind** | Luminosity | Snow |
|---|---|---|---|---|---|---|---|
| 1777496317 | 18.89° C | 88% | 1011.9 hPa | 0 mm | - | 69 W/m² | - |
| 1777496013 | 18.89° C | 88% | 1012 hPa | 0 mm | - | 88 W/m² | - |
| 1777495710 | 19.44° C | 85% | 1012 hPa | 0 mm | - | 97 W/m² | - |
| 1777495406 | 19.44° C | 88% | 1011.9 hPa | 0 mm | - | 163 W/m² | - |
| 1777495102 | 19.44° C | 87% | 1011.8 hPa | 0 mm | - | 104 W/m² | - |
| 1777494800 | 20° C | 87% | 1011.6 hPa | 0 mm | - | 105 W/m² | - |
| 1777494497 | 20° C | 88% | 1011.9 hPa | 0 mm | - | 237 W/m² | - |
| 1777494194 | 19.44° C | 88% | 1011.9 hPa | 0 mm | - | 242 W/m² | - |
| 1777493891 | 20° C | 88% | 1011.9 hPa | 0 mm | - | 413 W/m² | - |
| 1777493589 | 20° C | 86% | 1011.8 hPa | 0 mm | - | 28 W/m² | - |
| 1777493286 | 20.56° C | 86% | 1011.9 hPa | 0 mm | - | 147 W/m² | - |
| 1777492982 | 20° C | 89% | 1011.9 hPa | 0 mm | - | 196 W/m² | - |
| 1777492679 | 20.56° C | 87% | 1012.3 hPa | 0 mm | - | 112 W/m² | - |
| 1777492379 | 20.56° C | 88% | 1012 hPa | 0 mm | - | 134 W/m² | - |
| 1777492077 | 21.11° C | 90% | 1011.9 hPa | 0 mm | - | 221 W/m² | - |
| 1777491773 | 20° C | 89% | 1011.9 hPa | 0 mm | - | 537 W/m² | - |
| 1777491470 | 20° C | 90% | 1011.9 hPa | 0 mm | - | 478 W/m² | - |
| 1777491167 | 20.56° C | 90% | 1011.8 hPa | 0 mm | - | 203 W/m² | - |
| 1777490863 | 20.56° C | 91% | 1011.8 hPa | 0 mm | - | 93 W/m² | - |
| 1777490559 | 20.56° C | 88% | 1011.8 hPa | 0 mm | - | 269 W/m² | - |
| 1777490256 | 20.56° C | 90% | 1011.9 hPa | 0 mm | - | 170 W/m² | - |
| 1777489953 | 20.56° C | 91% | 1011.9 hPa | 0 mm | - | 250 W/m² | - |
| 1777489651 | 20° C | 90% | 1011.7 hPa | 0 mm | - | 273 W/m² | - |
| 1777489347 | 20° C | 91% | 1011.9 hPa | 0 mm | - | 181 W/m² | - |
| 1777489044 | 20° C | 90% | 1011.9 hPa | 0 mm | - | 157 W/m² | - |
* Rain latest hour (hover to see other rain measurements)
** Current wind speed in m/s (hover to see current wind gust speed)